| time (UTC) | temp C | wind direction | speed KPH | gust KPH | rain 1hr cm | rain 24hr cm | rain mn cm | humidity % | barometer mb |
| 20260505032229 | 22 | 321 | 1.6 | 1.6 | 0.00 | 0.00 | 0.00 | 83 | 1018.0 |
| 20260505031226 | 22 | 321 | 1.6 | 1.6 | 0.00 | 0.00 | 0.00 | 83 | 1017.0 |
| 20260505030224 | 22 | 321 | 1.6 | 1.6 | 0.00 | 0.00 | 0.00 | 83 | 1017.0 |
| 20260505025222 | 22 | 321 | 1.6 | 1.6 | 0.00 | 0.00 | 0.00 | 83 | 1018.0 |
| 20260505024221 | 22 | 321 | 1.6 | 1.6 | 0.00 | 0.00 | 0.00 | 83 | 1018.0 |
| 20260505023220 | 22 | 321 | 1.6 | 1.6 | 0.00 | 0.00 | 0.00 | 83 | 1018.0 |
| 20260505022218 | 22 | 321 | 1.6 | 1.6 | 0.00 | 0.00 | 0.00 | 83 | 1018.0 |
| 20260505021217 | 22 | 321 | 1.6 | 1.6 | 0.00 | 0.00 | 0.00 | 83 | 1018.0 |
| 20260505020215 | 22 | 321 | 1.6 | 1.6 | 0.00 | 0.00 | 0.00 | 83 | 1018.0 |
| 20260505015214 | 22 | 321 | 1.6 | 1.6 | 0.00 | 0.00 | 0.00 | 83 | 1018.0 |
| 20260505014213 | 22 | 321 | 1.6 | 1.6 | 0.00 | 0.00 | 0.00 | 83 | 1018.0 |
| 20260505013211 | 22 | 321 | 1.6 | 1.6 | 0.00 | 0.00 | 0.00 | 83 | 1018.0 |
| 20260505012210 | 22 | 321 | 1.6 | 3.2 | 0.00 | 0.00 | 0.00 | 83 | 1017.0 |
| 20260505011207 | 23 | 321 | 1.6 | 3.2 | 0.00 | 0.00 | 0.00 | 83 | 1017.0 |
| 20260505010205 | 23 | 321 | 1.6 | 3.2 | 0.00 | 0.00 | 0.00 | 84 | 1017.0 |
| 20260505005202 | 23 | 321 | 1.6 | 3.2 | 0.00 | 0.00 | 0.00 | 84 | 1017.0 |
| 20260505004201 | 23 | 321 | 1.6 | 3.2 | 0.00 | 0.00 | 0.00 | 83 | 1017.0 |
| 20260505003159 | 23 | 321 | 1.6 | 3.2 | 0.00 | 0.00 | 0.00 | 85 | 1017.0 |
| 20260505002156 | 24 | 274 | 1.6 | 1.6 | 0.00 | 0.00 | 0.00 | 81 | 1017.0 |
| 20260505001155 | 24 | 274 | 1.6 | 1.6 | 0.00 | 0.00 | 0.00 | 81 | 1017.0 |
| 20260505000153 | 24 | 274 | 1.6 | 1.6 | 0.00 | 0.00 | 0.00 | 83 | 1017.0 |
| 20260504235152 | 24 | 274 | 1.6 | 1.6 | 0.00 | 0.00 | 0.00 | 83 | 1017.0 |
| 20260504234151 | 24 | 274 | 1.6 | 1.6 | 0.00 | 0.00 | 0.00 | 80 | 1017.0 |
| 20260504233149 | 25 | 274 | 1.6 | 1.6 | 0.00 | 0.00 | 0.00 | 80 | 1017.0 |
| 20260504232148 | 25 | 221 | 3.2 | 3.2 | 0.00 | 0.00 | 0.00 | 74 | 1016.0 |
| 20260504231145 | 25 | 221 | 3.2 | 3.2 | 0.00 | 0.00 | 0.00 | 75 | 1016.0 |
| 20260504230144 | 25 | 221 | 3.2 | 3.2 | 0.00 | 0.00 | 0.00 | 76 | 1016.0 |
| 20260504225142 | 25 | 221 | 3.2 | 3.2 | 0.00 | 0.00 | 0.00 | 76 | 1016.0 |
| 20260504224140 | 25 | 221 | 3.2 | 3.2 | 0.00 | 0.00 | 0.00 | 72 | 1016.0 |
| 20260504223137 | 26 | 158 | 8.0 | 8.0 | 0.00 | 0.00 | 0.00 | 62 | 1016.0 |
| 20260504222136 | 26 | 158 | 8.0 | 8.0 | 0.00 | 0.00 | 0.00 | 62 | 1015.0 |
| 20260504221135 | 26 | 158 | 8.0 | 8.0 | 0.00 | 0.00 | 0.00 | 62 | 1015.0 |
| 20260504220133 | 26 | 158 | 8.0 | 8.0 | 0.00 | 0.00 | 0.00 | 62 | 1015.0 |
| 20260504215132 | 26 | 158 | 8.0 | 8.0 | 0.00 | 0.00 | 0.00 | 62 | 1015.0 |
| 20260504214131 | 26 | 158 | 8.0 | 8.0 | 0.00 | 0.00 | 0.00 | 62 | 1015.0 |
| 20260504213129 | 26 | 158 | 8.0 | 8.0 | 0.00 | 0.00 | 0.00 | 62 | 1015.0 |
| 20260504212127 | 26 | 158 | 8.0 | 8.0 | 0.00 | 0.00 | 0.00 | 62 | 1015.0 |
| 20260504211114 | 26 | 158 | 8.0 | 8.0 | 0.00 | 0.00 | 0.00 | 62 | 1015.0 |
| 20260504210113 | 26 | 158 | 8.0 | 8.0 | 0.00 | 0.00 | 0.00 | 62 | 1015.0 |
| 20260504205106 | 26 | 158 | 8.0 | 8.0 | 0.00 | 0.00 | 0.00 | 62 | 1015.0 |
| 20260504204105 | 26 | 158 | 8.0 | 8.0 | 0.00 | 0.00 | 0.00 | 62 | 1015.0 |
| 20260504203103 | 26 | 158 | 8.0 | 8.0 | 0.00 | 0.00 | 0.00 | 62 | 1015.0 |
| 20260504202100 | 26 | 158 | 8.0 | 8.0 | 0.00 | 0.00 | 0.00 | 62 | 1015.0 |
| 20260504201059 | 26 | 158 | 8.0 | 8.0 | 0.00 | 0.00 | 0.00 | 62 | 1015.0 |
| 20260504200058 | 26 | 158 | 8.0 | 8.0 | 0.00 | 0.00 | 0.00 | 62 | 1015.0 |
| 20260504195056 | 26 | 158 | 8.0 | 8.0 | 0.00 | 0.00 | 0.00 | 62 | 1015.0 |
| 20260504194055 | 26 | 158 | 8.0 | 8.0 | 0.00 | 0.00 | 0.00 | 62 | 1015.0 |
| 20260504193053 | 26 | 158 | 8.0 | 8.0 | 0.00 | 0.00 | 0.00 | 62 | 1015.0 |
| 20260504192052 | 26 | 158 | 8.0 | 8.0 | 0.00 | 0.00 | 0.00 | 62 | 1016.0 |
| 20260504191051 | 26 | 158 | 8.0 | 8.0 | 0.00 | 0.00 | 0.00 | 62 | 1016.0 |
| 20260504190049 | 26 | 158 | 8.0 | 8.0 | 0.00 | 0.00 | 0.00 | 62 | 1016.0 |
| 20260504185048 | 26 | 158 | 8.0 | 8.0 | 0.00 | 0.00 | 0.00 | 62 | 1016.0 |
| 20260504184046 | 26 | 158 | 8.0 | 8.0 | 0.00 | 0.00 | 0.00 | 62 | 1016.0 |
| 20260504183044 | 26 | 158 | 8.0 | 8.0 | 0.00 | 0.00 | 0.00 | 62 | 1016.0 |
| 20260504182042 | 26 | 158 | 8.0 | 8.0 | 0.00 | 0.00 | 0.00 | 62 | 1016.0 |
| 20260504181040 | 26 | 158 | 8.0 | 8.0 | 0.00 | 0.00 | 0.00 | 62 | 1016.0 |
| 20260504180039 | 26 | 158 | 8.0 | 8.0 | 0.00 | 0.00 | 0.00 | 62 | 1016.0 |
| 20260504175038 | 26 | 158 | 8.0 | 8.0 | 0.00 | 0.00 | 0.00 | 62 | 1016.0 |
| 20260504174035 | 26 | 158 | 8.0 | 8.0 | 0.00 | 0.00 | 0.00 | 62 | 1016.0 |
| 20260504173034 | 26 | 158 | 8.0 | 8.0 | 0.00 | 0.00 | 0.00 | 62 | 1016.0 |
| 20260504172032 | 26 | 158 | 8.0 | 8.0 | 0.00 | 0.00 | 0.00 | 62 | 1017.0 |
| 20260504171031 | 26 | 158 | 8.0 | 8.0 | 0.00 | 0.00 | 0.00 | 62 | 1017.0 |
| 20260504151012 | 23 | 140 | 6.4 | 6.4 | 0.00 | 0.00 | 0.00 | 72 | 1017.0 |
| 20260504141001 | 23 | 140 | 6.4 | 6.4 | 0.00 | 0.00 | 0.00 | 72 | 1017.0 |
| 20260504081909 | 21 | 352 | 1.6 | 1.6 | 0.00 | 0.00 | 0.00 | 87 | 1017.0 |
| 20260504080908 | 21 | 352 | 1.6 | 1.6 | 0.00 | 0.00 | 0.00 | 87 | 1017.0 |
| 20260504045842 | 21 | 352 | 1.6 | 1.6 | 0.00 | 0.00 | 0.00 | 87 | 1018.0 |
| 20260504044841 | 21 | 352 | 1.6 | 1.6 | 0.00 | 0.00 | 0.00 | 87 | 1018.0 |
| 20260504043839 | 21 | 352 | 1.6 | 1.6 | 0.00 | 0.00 | 0.00 | 87 | 1018.0 |
| 20260504042838 | 21 | 352 | 1.6 | 1.6 | 0.00 | 0.00 | 0.00 | 87 | 1018.0 |
| 20260504041836 | 21 | 352 | 1.6 | 1.6 | 0.00 | 0.00 | 0.00 | 87 | 1018.0 |
| 20260504040834 | 21 | 352 | 1.6 | 1.6 | 0.00 | 0.00 | 0.00 | 87 | 1018.0 |
| 20260504035833 | 21 | 352 | 1.6 | 1.6 | 0.00 | 0.00 | 0.00 | 87 | 1018.0 |
| 20260504034831 | 21 | 352 | 1.6 | 3.2 | 0.00 | 0.00 | 0.00 | 87 | 1018.0 |
| 20260504033829 | 22 | 327 | 1.6 | 1.6 | 0.00 | 0.00 | 0.00 | 86 | 1018.0 |